Le nostre stazioni meteo in Italia

Pubblicità
Il mio iltempo24.it
Cozzo Spadaro, Italia (16480): Temperatura & dewpoint: 12.03.2019 20:00:00 - 18.03.2019 20:00:00 (CET)Cozzo Spadaro, Italia (16480): velocità del vento & gusts: 12.03.2019 20:00:00 - 18.03.2019 20:00:00 (CET)Cozzo Spadaro, Italia (16480): direzione del vento: 12.03.2019 20:00:00 - 18.03.2019 20:00:00 (CET)Cozzo Spadaro, Italia (16480): reduced air pressure: 12.03.2019 20:00:00 - 18.03.2019 20:00:00 (CET)Cozzo Spadaro, Italia (16480): visibility: 12.03.2019 20:00:00 - 18.03.2019 20:00:00 (CET)Cozzo Spadaro, Italia (16480): ore di luce: 12.03.2019 20:00:00 - 18.03.2019 20:00:00 (CET)
Data & Tempo tt [°C] td [°C] ff [km/h] ff [kn] fx [km/h] fx [kn] dd ppp [hPa] vv [km] sd [min]
18.03.2019 20:00:00 - - - - - - - - - -
18.03.2019 19:00:00 15,0 13,2 9 5 - - O 1013,1 10 0
18.03.2019 18:00:00 16,6 13,7 13 7 - - O 1013,1 10 36
18.03.2019 17:00:00 17,8 12,9 15 8 - - O 1013,1 20 60
18.03.2019 16:00:00 18,0 13,7 13 7 - - OSO 1013,3 20 60
18.03.2019 15:00:00 18,0 14,1 11 6 - - OSO 1013,8 20 60
18.03.2019 14:00:00 17,6 13,1 15 8 - - OSO 1014,1 20 60
18.03.2019 13:00:00 17,2 13,3 15 8 - - OSO 1014,9 20 60
18.03.2019 12:00:00 16,8 13,0 11 6 - - SO 1014,9 20 60
18.03.2019 11:00:00 17,0 13,3 13 7 - - SO 1014,9 20 60
18.03.2019 10:00:00 15,8 13,8 9 5 - - SO 1014,1 10 60
18.03.2019 09:00:00 14,4 12,6 5 3 - - OSO 1014,0 10 60
18.03.2019 08:00:00 12,2 10,6 4 2 - - O 1014,2 10 48
18.03.2019 07:00:00 11,0 9,4 2 1 - - ONO 1014,2 10 0
18.03.2019 06:00:00 - - - - - - - - - -
18.03.2019 05:00:00 - - - - - - - - - -
18.03.2019 04:00:00 - - - - - - - - - -
18.03.2019 03:00:00 - - - - - - - - - -
18.03.2019 02:00:00 - - - - - - - - - -
18.03.2019 01:00:00 - - - - - - - - - -
18.03.2019 00:00:00 - - - - - - - - - -
17.03.2019 23:00:00 - - - - - - - - - -
17.03.2019 22:00:00 - - - - - - - - - -
17.03.2019 21:00:00 - - - - - - - - - -
17.03.2019 20:00:00 - - - - - - - - - -
17.03.2019 19:00:00 14,4 12,1 9 5 - - OSO 1015,6 20 0
17.03.2019 18:00:00 16,0 12,2 11 6 - - O 1016,0 20 12
17.03.2019 17:00:00 16,8 10,7 15 8 - - O 1016,1 20 60
17.03.2019 16:00:00 17,0 10,6 16 9 - - O 1016,1 20 60
17.03.2019 15:00:00 17,0 11,1 18 10 - - O 1017,1 20 60
17.03.2019 14:00:00 17,0 12,3 21 11 - - O 1017,1 20 60
17.03.2019 13:00:00 16,4 12,0 22 12 - - O 1017,9 20 60
17.03.2019 12:00:00 16,2 11,4 22 12 - - O 1018,1 20 60
17.03.2019 11:00:00 16,0 10,7 21 11 41 22 O 1018,1 20 60
17.03.2019 10:00:00 15,8 11,0 22 12 - - O 1018,1 20 60
17.03.2019 09:00:00 15,0 10,2 18 10 - - O 1018,0 20 60
17.03.2019 08:00:00 13,6 10,0 18 10 - - ONO 1017,3 20 48
17.03.2019 07:00:00 12,4 10,6 18 10 - - ONO 1017,3 20 0
17.03.2019 06:00:00 - - - - - - - - - -
17.03.2019 05:00:00 - - - - - - - - - -
17.03.2019 04:00:00 - - - - - - - - - -
17.03.2019 03:00:00 - - - - - - - - - -
17.03.2019 02:00:00 - - - - - - - - - -
17.03.2019 01:00:00 - - - - - - - - - -
17.03.2019 00:00:00 - - - - - - - - - -
16.03.2019 23:00:00 - - - - - - - - - -
16.03.2019 22:00:00 - - - - - - - - - -
16.03.2019 21:00:00 - - - - - - - - - -
16.03.2019 20:00:00 - - - - - - - - - -
16.03.2019 19:00:00 14,0 12,1 16 9 - - O 1018,0 20 -
16.03.2019 18:00:00 15,0 12,5 16 9 - - O 1017,7 20 12
16.03.2019 17:00:00 15,8 12,4 21 11 - - O 1017,9 20 60
16.03.2019 16:00:00 16,4 12,0 21 11 - - O 1017,9 20 60
16.03.2019 15:00:00 16,8 11,7 24 13 - - O 1018,0 20 60
16.03.2019 14:00:00 17,0 11,1 22 12 - - O 1019,4 20 60
16.03.2019 13:00:00 16,8 10,9 22 12 - - O 1020,0 20 60
16.03.2019 12:00:00 16,8 10,7 21 11 - - O 1020,1 20 60
16.03.2019 11:00:00 16,0 8,3 13 7 - - ONO 1020,1 20 60
16.03.2019 10:00:00 16,0 11,0 2 1 - - OSO 1019,9 20 60
16.03.2019 09:00:00 14,2 9,2 5 3 - - OSO 1020,0 20 60
16.03.2019 08:00:00 14,0 10,0 2 1 - - ESE 1019,2 20 60
16.03.2019 07:00:00 10,4 8,3 2 1 - - N 1019,2 20 0
16.03.2019 06:00:00 - - - - - - - - - -
16.03.2019 05:00:00 - - - - - - - - - -
16.03.2019 04:00:00 - - - - - - - - - -
16.03.2019 03:00:00 - - - - - - - - - -
16.03.2019 02:00:00 - - - - - - - - - -
16.03.2019 01:00:00 - - - - - - - - - -
16.03.2019 00:00:00 - - - - - - - - - -
15.03.2019 23:00:00 - - - - - - - - - -
15.03.2019 22:00:00 - - - - - - - - - -
15.03.2019 21:00:00 - - - - - - - - - -
15.03.2019 20:00:00 - - - - - - - - - -
15.03.2019 19:00:00 15,6 12,7 15 8 - - NNO 1015,5 20 -
15.03.2019 18:00:00 16,0 12,0 15 8 - - ONO 1014,6 20 18
15.03.2019 17:00:00 16,4 12,0 18 10 - - ONO 1014,1 20 60
15.03.2019 16:00:00 17,4 11,7 18 10 - - O 1014,1 20 60
15.03.2019 15:00:00 18,0 11,8 21 11 - - ONO 1013,8 20 60
15.03.2019 14:00:00 17,0 10,4 24 13 - - O 1014,0 20 60
15.03.2019 13:00:00 18,2 10,3 22 12 - - ONO 1014,1 20 60
15.03.2019 12:00:00 18,8 9,6 13 7 - - ONO 1014,4 20 60
15.03.2019 11:00:00 17,4 6,9 18 10 - - NNO 1014,8 20 60
15.03.2019 10:00:00 16,0 6,2 15 8 - - NNO 1014,6 20 60
15.03.2019 09:00:00 15,0 6,8 21 11 - - NO 1014,1 20 60
15.03.2019 08:00:00 12,0 7,1 11 6 - - NO 1014,0 20 30
15.03.2019 07:00:00 8,8 6,1 5 3 - - ONO 1013,9 20 0
15.03.2019 06:00:00 - - - - - - - - - -
15.03.2019 05:00:00 - - - - - - - - - -
15.03.2019 04:00:00 - - - - - - - - - -
15.03.2019 03:00:00 - - - - - - - - - -
15.03.2019 02:00:00 - - - - - - - - - -
15.03.2019 01:00:00 - - - - - - - - - -
15.03.2019 00:00:00 - - - - - - - - - -
14.03.2019 23:00:00 - - - - - - - - - -
14.03.2019 22:00:00 - - - - - - - - - -
14.03.2019 21:00:00 - - - - - - - - - -
14.03.2019 20:00:00 - - - - - - - - - -
14.03.2019 19:00:00 12,8 -0,5 9 5 - - NO 1013,2 20 -
14.03.2019 18:00:00 15,0 -1,6 21 11 - - NNO 1012,1 20 12
14.03.2019 17:00:00 16,2 -4,4 22 12 - - NNO 1011,0 20 60
14.03.2019 16:00:00 16,8 1,3 22 12 - - NO 1010,6 20 60
14.03.2019 15:00:00 16,0 3,1 26 14 - - NNO 1010,8 20 42
14.03.2019 14:00:00 16,4 7,1 28 15 - - ONO 1010,3 20 30
14.03.2019 13:00:00 17,2 5,8 24 13 - - O 1010,9 20 54
14.03.2019 12:00:00 17,6 0,7 24 13 - - NO 1011,5 20 60
14.03.2019 11:00:00 16,4 1,3 26 14 - - NO 1012,0 20 60
14.03.2019 10:00:00 15,4 5,1 22 12 - - NO 1012,1 20 60
14.03.2019 09:00:00 14,4 5,0 22 12 - - NO 1012,0 20 60
14.03.2019 08:00:00 13,0 5,9 21 11 - - ONO 1012,1 20 36
14.03.2019 07:00:00 12,0 8,8 18 10 - - ONO 1012,2 20 0
14.03.2019 06:00:00 - - - - - - - - - -
14.03.2019 05:00:00 - - - - - - - - - -
14.03.2019 04:00:00 - - - - - - - - - -
14.03.2019 03:00:00 - - - - - - - - - -
14.03.2019 02:00:00 - - - - - - - - - -
14.03.2019 01:00:00 - - - - - - - - - -
14.03.2019 00:00:00 - - - - - - - - - -
13.03.2019 23:00:00 - - - - - - - - - -
13.03.2019 22:00:00 - - - - - - - - - -
13.03.2019 21:00:00 - - - - - - - - - -
13.03.2019 20:00:00 - - - - - - - - - -
13.03.2019 19:00:00 12,4 6,0 18 10 - - ONO 1015,2 20 -
13.03.2019 18:00:00 13,0 3,7 21 11 - - O 1015,2 20 18
13.03.2019 17:00:00 14,0 4,0 21 11 - - O 1015,1 20 60
13.03.2019 16:00:00 15,0 3,8 21 11 - - O 1015,5 20 60
13.03.2019 15:00:00 15,4 4,8 21 11 - - O 1016,1 20 60
13.03.2019 14:00:00 16,0 5,6 21 11 - - O 1016,1 20 60
13.03.2019 13:00:00 15,8 4,8 16 9 - - O 1016,8 20 60
13.03.2019 12:00:00 16,0 4,4 15 8 - - ONO 1017,6 20 60
13.03.2019 11:00:00 16,0 2,4 9 5 - - E 1017,8 20 60
13.03.2019 10:00:00 15,8 2,2 9 5 - - NNO 1017,9 20 60
13.03.2019 09:00:00 13,6 4,5 13 7 - - NNO 1017,8 20 60
13.03.2019 08:00:00 11,2 3,3 5 3 - - NO 1017,3 20 54
13.03.2019 07:00:00 8,6 1,7 9 5 - - NO 1017,2 20 0
13.03.2019 06:00:00 - - - - - - - - - -
13.03.2019 05:00:00 - - - - - - - - - -
13.03.2019 04:00:00 - - - - - - - - - -
13.03.2019 03:00:00 - - - - - - - - - -
13.03.2019 02:00:00 - - - - - - - - - -
13.03.2019 01:00:00 - - - - - - - - - -
13.03.2019 00:00:00 - - - - - - - - - -
12.03.2019 23:00:00 - - - - - - - - - -
12.03.2019 22:00:00 - - - - - - - - - -
12.03.2019 21:00:00 - - - - - - - - - -
12.03.2019 20:00:00 - - - - - - - - - -

tt = Temperatura
td = dewpoint
ff = velocità del vento
fx = gusts
dd = direzione del vento
ppp = reduced air pressure
vv = visibility
sd = ore di luce

Stazioni seguenti

WeatherPro
AMSI
MeteoEarth